TimeAKDT,TemperatureF,Dew PointF,Humidity,Sea Level PressureIn,VisibilityMPH,Wind Direction,Wind SpeedMPH,Gust SpeedMPH,PrecipitationIn,Events,Conditions,WindDirDegrees,DateUTC
12:53 AM,14.0,9.0,80,30.13,10.0,SW,15.0,-,N/A,,Mostly Cloudy,220,2013-05-07 08:53:00
1:53 AM,10.9,7.0,84,30.13,10.0,SW,15.0,-,N/A,,Mostly Cloudy,220,2013-05-07 09:53:00
2:53 AM,8.1,3.0,80,30.13,10.0,SW,15.0,-,N/A,,Scattered Clouds,230,2013-05-07 10:53:00
3:53 AM,5.0,1.0,84,30.13,10.0,SW,13.8,-,N/A,,Scattered Clouds,220,2013-05-07 11:53:00
4:53 AM,3.9,-0.0,84,30.13,10.0,SW,15.0,-,N/A,,Scattered Clouds,220,2013-05-07 12:53:00
5:53 AM,5.0,1.0,84,30.13,10.0,SW,16.1,-,N/A,,Scattered Clouds,220,2013-05-07 13:53:00
6:53 AM,7.0,3.0,84,30.13,10.0,SW,15.0,-,N/A,,Partly Cloudy,220,2013-05-07 14:53:00
7:53 AM,9.0,3.9,80,30.13,10.0,SW,16.1,-,N/A,,Partly Cloudy,220,2013-05-07 15:53:00
8:53 AM,12.9,8.1,81,30.13,10.0,SW,15.0,-,N/A,,Scattered Clouds,220,2013-05-07 16:53:00
9:53 AM,16.0,10.0,77,30.13,10.0,SW,12.7,-,N/A,,Clear,220,2013-05-07 17:53:00
10:53 AM,16.0,10.9,81,30.13,10.0,SW,12.7,-,N/A,,Clear,230,2013-05-07 18:53:00
11:53 AM,17.1,10.9,77,30.13,10.0,SW,16.1,-,N/A,,Scattered Clouds,220,2013-05-07 19:53:00
12:53 PM,19.9,14.0,78,30.14,10.0,SW,13.8,-,N/A,,Scattered Clouds,230,2013-05-07 20:53:00
1:53 PM,21.9,17.1,82,30.14,10.0,SW,12.7,-,N/A,,Scattered Clouds,230,2013-05-07 21:53:00
2:53 PM,23.0,18.0,81,30.14,10.0,SW,12.7,-,N/A,,Partly Cloudy,230,2013-05-07 22:53:00
3:53 PM,23.0,18.0,81,30.14,10.0,SW,11.5,-,N/A,,Partly Cloudy,220,2013-05-07 23:53:00
4:53 PM,23.0,19.0,85,30.14,10.0,SSW,10.4,-,N/A,,Partly Cloudy,210,2013-05-08 00:53:00
5:53 PM,23.0,19.0,85,30.14,10.0,SW,10.4,-,N/A,,Partly Cloudy,220,2013-05-08 01:53:00
6:53 PM,21.9,17.1,82,30.14,10.0,WSW,11.5,-,N/A,,Scattered Clouds,240,2013-05-08 02:53:00
7:53 PM,23.0,17.1,78,30.14,10.0,SW,16.1,-,N/A,,Scattered Clouds,230,2013-05-08 03:53:00
8:53 PM,21.9,17.1,82,30.14,10.0,SW,13.8,-,N/A,,Mostly Cloudy,220,2013-05-08 04:53:00
9:53 PM,19.9,15.1,81,30.13,10.0,SSW,12.7,-,N/A,,Mostly Cloudy,210,2013-05-08 05:53:00
10:53 PM,19.0,14.0,81,30.14,10.0,SW,15.0,-,N/A,,Mostly Cloudy,220,2013-05-08 06:53:00
11:53 PM,16.0,12.0,84,30.14,10.0,SW,17.3,-,N/A,,Mostly Cloudy,220,2013-05-08 07:53:00